Regional Weather Roundup
Issued by NWS

Home | Current Version | Previous Version | Text Only | Print | Product List | Glossary Off
Versions: 1 2 3 4 5 6 7 8 9 10 11 12 13 14 15 16 17 18 19 20 21 22 23 24 25 26 27 28 29 30 31 32 33 34 35 36 37 38 39 40 41 42 43 44 45 46 47 48 49 50

723
ASUS43 KDTX 181310
RWRMI
MICHIGAN HOURLY REGIONAL WEATHER ROUNDUP
NATIONAL WEATHER SERVICE DETROIT/PONTIAC MI
800 AM EST SUN FEB 18 2018

NOTE: "FAIR" INDICATES FEW OR NO CLOUDS BELOW 12,000 FEET WITH NO
SIGNIFICANT WEATHER AND/OR OBSTRUCTION TO VISIBILITY.

MIZ047>049-052>055-059>063-066>070-074>076-081>083-181400-
SOUTHEAST LOWER MICHIGAN

CITY           SKY/WX    TMP DP  RH WIND       PRES   REMARKS
ADRIAN         FAIR      27  21  78 W5        30.30S WCI  22
ALMA           CLOUDY    30  25  82 SW6       30.25R WCI  24
ANN ARBOR      FAIR      25  19  78 SW5       30.28R WCI  19
BAD AXE        CLOUDY    27  21  78 SW7       30.24R WCI  19
CARO           CLOUDY    28  22  78 SW6       30.24R WCI  22
DETROIT CITY   FAIR      30  21  69 W6        30.28R WCI  24
DETROIT        MOCLDY    30  23  75 W3        30.30R
FLINT          MOCLDY    27  20  75 SW5       30.27R WCI  22
GROSSE ILE     FAIR      30  25  81 CALM      30.30R
HILLSDALE      CLOUDY    28  21  74 CALM      30.25R
HOWELL         CLOUDY    29  23  78 W5        30.26R WCI  24

CITY           SKY/WX    TMP DP  RH WIND       PRES   REMARKS
JACKSON        FAIR      26  20  77 S3        30.26S
LAMBERTVILLE   CLOUDY    30  24  77 CALM      30.30S
LANSING        CLOUDY    28  23  81 SW6       30.27R WCI  22
LAPEER         CLOUDY    29  23  77 SW3       30.26R
MASON          MOCLDY    28  20  72 CALM      30.27R
MONROE         CLOUDY    30  23  75 W3        30.29S
MT. CLEMENS    MOCLDY    31  27  85 W3        30.26R
PONTIAC        MOCLDY    28  21  75 W7        30.25R WCI  21
PORT HOPE        N/A     29  21  72 SW6       30.22R WCI  23
PORT HURON     CLOUDY    30  21  69 W7        30.28R WCI  23
TRI CITIES     CLOUDY    29  22  75 SW8       30.25R WCI  21
MIDLAND        CLOUDY    30  23  74 SW5       30.23R WCI  25
TROY           CLOUDY    32  24  73 W5        30.29S WCI  27
SAGINAW HB     MOCLDY    28  23  80 SW7       30.25R WCI  21
$$
MIZ043>046-050>051-056>058-064>065-071>073-077>080-181400-
SOUTHWEST LOWER MICHIGAN

CITY           SKY/WX    TMP DP  RH WIND       PRES   REMARKS
BATTLE CREEK   CLOUDY    27  23  85 SW8       30.27R WCI  19
BENTON HARBOR  FOG       23  20  88 SE3       30.29R VSB 1
BIG RAPIDS     FAIR      24  21  89 SW7       30.20R WCI  16
COLDWATER      FAIR      23  23 100 CALM      30.28R
FREMONT        MOCLDY    23  20  88 CALM      30.23R
HOLLAND        CLOUDY    31  25  78 SW6       30.25R WCI  25
GRAND RAPIDS   MOCLDY    30  25  81 S8        30.24R WCI  22
IONIA          CLOUDY    30  25  83 SW6       30.24R WCI  24
KALAMAZOO      MOCLDY    22  20  92 S6        30.27R FOG     WCI  14
LUDINGTON      FAIR      27  21  77 CALM      30.19F
MARSHALL       FAIR      26  22  84 SW5       30.26S WCI  20
MOUNT PLEASANT CLOUDY    30  22  72 SW5       30.22R WCI  25
MUSKEGON       FAIR      27  22  81 SW5       30.24R WCI  22
SOUTH HAVEN    CLOUDY    30  25  83 SW5       30.27S WCI  25
$$
MIZ016>042-181400-
NORTHERN LOWER MICHIGAN

CITY           SKY/WX    TMP DP  RH WIND       PRES   REMARKS
ALPENA         CLOUDY    27  19  72 CALM      30.19R
BEAVER ISLAND  FAIR      22  12  66 W5        30.17R WCI  16
BELLAIRE       MOCLDY    22  22 100 CALM      30.19R
CADILLAC       MOCLDY    24  20  85 SW6       30.15R WCI  17
CHARLEVOIX     CLOUDY    21  18  86 CALM      30.21R
FRANKFORT      MOCLDY    27  22  80 CALM      30.18R
GAYLORD        CLOUDY    23  22  96 SW5       30.14R WCI  17
GRAYLING       CLOUDY    25  21  85 CALM      30.15R
HARBOR SPRINGS MOCLDY    17  13  84 CALM      30.17R
HOUGHTON LAKE  MOCLDY    24  18  77 SW5       30.17R WCI  18
MANISTEE       FAIR      17  14  88 E3        30.19R FOG
OSCODA         CLOUDY    25  19  78 SW3       30.20R
PELLSTON       FAIR       9   7  92 CALM      30.18R
ROGERS CITY    FAIR      20  17  85 SW3       30.18R
TRAVERSE CITY  MOCLDY    28  22  78 CALM      30.18R
$$
MIZ007>008-015-181400-
EASTERN UPPER MICHIGAN

CITY           SKY/WX    TMP DP  RH WIND       PRES   REMARKS
KINROSS        FAIR      15  12  88 W7        30.14R WCI   5
MACKINAC ISLAN FAIR      19  13  78 W7        30.15R WCI  10
NEWBERRY       FAIR      12  10  94 SW5       30.13S WCI   4
S. S. MARIE    MOCLDY    20  15  81 SW7       30.13R WCI  11
MUNISING         N/A      9   7  92 S8        30.14F WCI  -3
$$
MIZ004>006-011>014-085-181400-
CENTRAL UPPER MICHIGAN

CITY           SKY/WX    TMP DP  RH WIND       PRES   REMARKS
MANISTIQUE     FAIR      13   9  87 W7        30.15S WCI   2
ESCANABA       FAIR       7   4  87 NW3       30.17R
MENOMINEE      FAIR      13  10  88 CALM      30.18R
SAWYER-GWINN   CLEAR      9   3  78 CALM      30.10F
$$
MIZ001>003-009>011-084-181400-
WESTERN UPPER MICHIGAN

CITY           SKY/WX    TMP DP  RH WIND       PRES   REMARKS
IRON MOUNTAIN  MOCLDY     7   3  84 CALM      30.08F
HOUGHTON       CLOUDY    16   6  65 CALM      30.04F
COPPER HARBOR    N/A     16   7  67 CALM      30.08F
IRONWOOD       CLOUDY    13   5  70 S3        30.03F
$$

ABBREVIATIONS USED IN REMARKS
   TC - TEMPERATURE IN CELSIUS
  WCI - WIND CHILL INDEX
   HX - HEAT INDEX
  VSB - VISIBILITY





USA.gov is the U.S. government's official web portal to all federal, state and local government web resources and services.